FW7862 Weather Reports


time (UTC)temp
C
wind
direction
speed
KPH
gust
KPH
rain 1hr
cm
rain 24hr
cm
rain mn
cm
humidity
%
barometer
mb
20260510164746 28 38 0.0 0.0 0.00 0.00 0.00 81 1016.7
20260510164244 27 72 1.6 3.2 0.00 0.00 0.00 83 1016.7
20260510163744 27 32 1.6 1.6 0.00 0.00 0.00 83 1016.8
20260510163240 27 34 0.0 0.0 0.00 0.00 0.00 83 1016.9
20260510162739 27 66 0.0 1.6 0.00 0.00 0.00 81 1016.8
20260510162237 27 89 1.6 1.6 0.00 0.00 0.00 82 1017.1
20260510161733 27 40 1.6 1.6 0.00 0.00 0.00 84 1017.0
20260510161229 26 63 0.0 0.0 0.00 0.00 0.00 85 1017.0
20260510160726 26 34 0.0 1.6 0.00 0.00 0.00 88 1017.0
20260510160221 23 40 0.0 1.6 0.00 0.00 0.00 98 1016.7
20260510155717 23 326 1.6 1.6 0.00 0.00 0.00 99 1016.9
20260510155213 23 32 1.6 1.6 0.00 0.00 0.00 99 1016.8
20260510154709 23 44 0.0 0.0 0.00 0.00 0.00 99 1016.9
20260510154205 22 42 0.0 0.0 0.00 0.00 0.00 99 1016.8
20260510153700 22 53 0.0 1.6 0.00 0.00 0.00 99 1016.6
20260510153157 22 75 1.6 1.6 0.00 0.00 0.00 99 1016.6
20260510152653 22 28 0.0 0.0 0.00 0.00 0.00 99 1016.8
20260510152149 22 70 1.6 1.6 0.00 0.00 0.00 99 1016.7
20260510151646 21 25 0.0 0.0 0.00 0.00 0.00 99 1016.7
20260510151145 21 29 1.6 1.6 0.00 0.00 0.00 99 1016.9
20260510150640 21 73 1.6 1.6 0.00 0.00 0.00 99 1016.8
20260510150135 21 26 0.0 0.0 0.00 0.00 0.00 99 1016.6
20260510145632 21 83 0.0 1.6 0.00 0.00 0.00 99 1017.0
20260510145129 21 51 0.0 1.6 0.00 0.00 0.00 99 1017.2
20260510144625 21 85 1.6 1.6 0.00 0.00 0.00 99 1017.0
20260510144121 21 47 0.0 0.0 0.00 0.00 0.00 99 1017.2
20260510143617 21 52 0.0 0.0 0.00 0.00 0.00 99 1016.9
20260510143113 20 21 0.0 0.0 0.00 0.00 0.00 99 1017.1
20260510142610 20 26 0.0 0.0 0.00 0.00 0.00 99 1017.0
20260510142106 20 27 0.0 0.0 0.00 0.00 0.00 99 1017.2
20260510141603 20 29 0.0 0.0 0.00 0.00 0.00 99 1017.1
20260510141101 20 37 0.0 0.0 0.00 0.00 0.00 99 1017.1
20260510140557 20 30 0.0 0.0 0.00 0.00 0.00 99 1017.1
20260510140057 20 39 0.0 0.0 0.00 0.00 0.00 99 1017.0
20260510135552 20 24 0.0 0.0 0.00 0.00 0.00 99 1017.0
20260510135049 20 21 0.0 0.0 0.00 0.00 0.00 99 1017.1
20260510134546 20 36 0.0 0.0 0.00 0.00 0.00 99 1016.7
20260510134043 20 34 0.0 0.0 0.00 0.00 0.00 99 1016.6
20260510133539 19 20 0.0 0.0 0.00 0.00 0.00 99 1016.6
20260510133035 20 34 0.0 0.0 0.00 0.00 0.00 99 1016.5
20260510132532 19 24 0.0 0.0 0.00 0.00 0.00 99 1016.7
20260510132029 19 27 0.0 0.0 0.00 0.00 0.00 99 1016.4
20260510131527 19 23 0.0 0.0 0.00 0.00 0.00 99 1016.7
20260510131024 19 44 0.0 0.0 0.00 0.00 0.00 99 1016.5
20260510130520 19 47 1.6 1.6 0.00 0.00 0.00 99 1016.6
20260510130017 19 29 0.0 0.0 0.00 0.00 0.00 99 1016.4
20260510125514 18 53 0.0 1.6 0.00 0.00 0.00 99 1016.3
20260510125010 18 23 0.0 0.0 0.00 0.00 0.00 99 1016.0
20260510124506 18 30 0.0 0.0 0.00 0.00 0.00 99 1016.3
20260510124003 18 24 0.0 0.0 0.00 0.00 0.00 99 1016.1
20260510123459 18 37 0.0 0.0 0.00 0.00 0.00 99 1016.1
20260510122955 18 23 0.0 0.0 0.00 0.00 0.00 99 1015.9
20260510122450 18 44 0.0 0.0 0.00 0.00 0.00 99 1015.8
20260510121947 18 34 0.0 0.0 0.00 0.00 0.00 99 1015.8
20260510121444 18 40 0.0 0.0 0.00 0.00 0.00 99 1015.9
20260510120942 18 32 0.0 0.0 0.00 0.00 0.00 99 1015.7
20260510120439 18 52 0.0 0.0 0.00 0.00 0.00 99 1015.5
20260510115934 18 37 0.0 0.0 0.00 0.00 0.00 99 1015.5
20260510115432 18 33 0.0 0.0 0.00 0.00 0.00 99 1015.2
20260510114927 18 29 0.0 0.0 0.00 0.00 0.00 99 1015.2
20260510114425 18 25 0.0 0.0 0.00 0.00 0.00 99 1015.2
20260510113920 18 21 0.0 0.0 0.00 0.00 0.00 99 1014.9
20260510113416 18 21 0.0 0.0 0.00 0.00 0.00 99 1015.0
20260510112914 18 23 0.0 0.0 0.00 0.00 0.00 99 1015.0
20260510112411 18 22 0.0 0.0 0.00 0.00 0.00 99 1014.7
20260510111907 18 22 0.0 0.0 0.00 0.00 0.00 99 1014.6
20260510111403 18 18 0.0 0.0 0.00 0.00 0.00 99 1014.3
20260510110858 18 19 0.0 0.0 0.00 0.00 0.00 99 1014.0
20260510110355 18 19 0.0 0.0 0.00 0.00 0.00 99 1014.0
20260510105851 18 36 0.0 0.0 0.00 0.00 0.00 99 1014.0
20260510105351 18 28 0.0 0.0 0.00 0.00 0.00 99 1014.0
20260510104847 18 21 0.0 0.0 0.00 0.00 0.00 99 1013.9
20260510104344 18 33 0.0 0.0 0.00 0.00 0.00 99 1013.7
20260510103840 18 34 0.0 0.0 0.00 0.00 0.00 99 1013.9
20260510103338 18 44 0.0 0.0 0.00 0.00 0.00 99 1013.8
20260510102833 18 26 0.0 0.0 0.00 0.00 0.00 99 1013.8
20260510102329 18 31 0.0 0.0 0.00 0.00 0.00 99 1013.7
20260510101826 18 20 0.0 0.0 0.00 0.00 0.00 99 1013.4
20260510101324 18 23 0.0 0.0 0.00 0.00 0.00 99 1013.5
20260510100820 18 20 0.0 0.0 0.00 0.00 0.00 99 1013.4
20260510100318 18 30 0.0 0.0 0.00 0.00 0.00 99 1013.4
20260510095814 18 25 0.0 0.0 0.00 0.00 0.00 99 1013.4
20260510095309 18 23 0.0 0.0 0.00 0.00 0.00 99 1013.3
20260510094809 18 21 0.0 0.0 0.00 0.00 0.00 99 1013.3
20260510094304 18 30 0.0 0.0 0.00 0.00 0.00 99 1013.1
20260510093800 18 27 0.0 0.0 0.00 0.00 0.00 99 1013.2
20260510093257 18 21 0.0 0.0 0.00 0.00 0.00 99 1013.0
20260510092753 18 21 0.0 0.0 0.00 0.00 0.00 99 1013.1
20260510092249 18 36 0.0 0.0 0.00 0.00 0.00 99 1013.3
20260510091745 18 23 0.0 0.0 0.00 0.00 0.00 99 1013.2
20260510091242 18 28 0.0 0.0 0.00 0.00 0.00 99 1013.3
20260510090738 18 31 0.0 0.0 0.00 0.00 0.00 99 1013.4
20260510090236 18 19 0.0 0.0 0.00 0.00 0.00 99 1013.4
20260510085731 18 23 0.0 0.0 0.00 0.00 0.00 99 1013.3
20260510085226 18 26 0.0 0.0 0.00 0.00 0.00 99 1013.5
20260510084722 18 27 0.0 0.0 0.00 0.00 0.00 99 1013.5
20260510084219 18 22 0.0 0.0 0.00 0.00 0.00 99 1013.3
20260510083715 18 20 0.0 0.0 0.00 0.00 0.00 99 1013.5
20260510083213 18 20 0.0 0.0 0.00 0.00 0.00 99 1013.4
20260510082708 18 21 0.0 0.0 0.00 0.00 0.00 99 1013.2
20260510082205 18 21 0.0 0.0 0.00 0.00 0.00 99 1013.3
20260510081659 18 21 0.0 0.0 0.00 0.00 0.00 99 1013.0
20260510081155 18 24 0.0 0.0 0.00 0.00 0.00 99 1013.0
20260510080655 18 23 0.0 0.0 0.00 0.00 0.00 99 1013.0
20260510080152 18 23 0.0 0.0 0.00 0.00 0.00 99 1012.9
20260510075648 18 26 0.0 0.0 0.00 0.00 0.00 99 1012.8
20260510075146 18 21 0.0 0.0 0.00 0.00 0.00 99 1013.0
20260510074643 18 21 0.0 0.0 0.00 0.00 0.00 99 1012.8
20260510074138 18 23 0.0 0.0 0.00 0.00 0.00 99 1013.0
20260510073635 18 25 0.0 0.0 0.00 0.00 0.00 99 1012.9
20260510073132 18 19 0.0 0.0 0.00 0.00 0.00 99 1012.9
20260510072628 18 20 0.0 0.0 0.00 0.00 0.00 99 1012.7
20260510072124 18 20 0.0 0.0 0.00 0.00 0.00 99 1012.8
20260510071620 18 23 0.0 0.0 0.00 0.00 0.00 99 1012.7
20260510071118 18 23 0.0 0.0 0.00 0.00 0.00 99 1012.7
20260510070615 18 23 0.0 0.0 0.00 0.00 0.00 99 1012.9
20260510070113 18 27 0.0 0.0 0.00 0.00 0.00 99 1012.8
20260510065608 18 27 0.0 0.0 0.00 0.00 0.00 99 1013.0
20260510065105 19 30 0.0 1.6 0.00 0.00 0.00 99 1013.0
20260510064601 19 24 0.0 0.0 0.00 0.00 0.00 99 1013.1
20260510064058 19 37 0.0 0.0 0.00 0.00 0.00 99 1013.1
20260510063555 19 24 0.0 0.0 0.00 0.00 0.00 99 1013.3
20260510063052 19 22 0.0 0.0 0.00 0.00 0.00 99 1013.4
20260510062548 19 20 0.0 0.0 0.00 0.00 0.00 99 1013.1
20260510062043 19 21 0.0 0.0 0.00 0.00 0.00 99 1013.2
20260510061540 19 19 0.0 0.0 0.00 0.00 0.00 99 1013.2
20260510061037 19 20 0.0 0.0 0.00 0.00 0.00 99 1013.2
20260510060533 19 20 0.0 0.0 0.00 0.00 0.00 99 1013.2
20260510060029 19 21 0.0 0.0 0.00 0.00 0.00 99 1013.2
20260510055525 19 19 0.0 0.0 0.00 0.00 0.00 99 1013.2
20260510055024 19 19 0.0 0.0 0.00 0.00 0.00 99 1013.3
20260510054519 19 20 0.0 0.0 0.00 0.00 0.00 99 1013.2
20260510054014 19 20 0.0 0.0 0.00 0.00 0.00 99 1013.2
20260510053509 19 20 0.0 0.0 0.00 0.00 0.00 99 1013.1
20260510053006 18 20 0.0 0.0 0.00 0.00 0.00 99 1013.2
20260510052502 19 20 0.0 0.0 0.00 0.00 0.00 99 1013.1
20260510051958 19 21 0.0 0.0 0.00 0.00 0.00 99 1012.9
20260510051454 19 21 0.0 0.0 0.00 0.00 0.00 99 1013.2
20260510050951 19 24 0.0 0.0 0.00 0.00 0.00 99 1013.2
20260510050448 19 22 0.0 0.0 0.00 0.00 0.00 99 1013.2
20260510045945 19 16 0.0 0.0 0.00 8.43 8.43 99 1013.2
20260510045442 19 16 0.0 0.0 0.00 8.43 8.43 99 1013.3
20260510044939 19 19 0.0 0.0 0.00 8.43 8.43 99 1013.0
20260510044435 19 20 0.0 0.0 0.00 8.43 8.43 99 1013.1
20260510043932 19 19 0.0 0.0 0.00 8.43 8.43 99 1013.0
20260510043422 19 34 0.0 0.0 0.00 8.43 8.43 99 1013.3
20260510042921 19 26 0.0 0.0 0.00 8.43 8.43 99 1013.2
20260510042416 19 6 0.0 0.0 0.00 8.43 8.43 99 1013.1
20260510041912 20 11 0.0 0.0 0.00 8.43 8.43 99 1013.1
20260510041410 20 12 0.0 0.0 0.00 8.43 8.43 99 1012.6
20260510040908 20 13 0.0 0.0 0.00 8.43 8.43 99 1012.6
20260510040404 20 33 0.0 0.0 0.00 8.43 8.43 99 1012.7
20260510035859 20 48 0.0 0.0 0.00 8.43 8.43 99 1012.6
20260510035355 20 32 0.0 0.0 0.00 8.43 8.43 99 1013.0
20260510034851 20 27 0.0 0.0 0.00 8.43 8.43 99 1013.0
20260510034349 20 19 0.0 0.0 0.00 8.43 8.43 99 1013.4
20260510033845 20 19 0.0 0.0 0.00 8.43 8.43 99 1013.6
20260510033342 20 20 0.0 0.0 0.00 8.43 8.43 99 1014.1
20260510032838 20 26 0.0 0.0 0.00 8.43 8.43 99 1013.9
20260510032336 20 28 0.0 0.0 0.00 8.43 8.43 99 1014.0
20260510031831 20 13 0.0 0.0 0.00 8.43 8.43 99 1013.9
20260510031327 20 6 0.0 0.0 0.00 8.43 8.43 99 1013.8
20260510030827 20 6 0.0 0.0 0.00 8.43 8.43 99 1013.6
20260510030323 20 6 0.0 0.0 0.00 8.43 8.43 99 1013.6
20260510025820 20 7 0.0 0.0 0.00 8.43 8.43 99 1013.6
20260510025318 20 20 0.0 0.0 0.00 8.43 8.43 99 1013.1
20260510024815 20 11 0.0 0.0 0.00 8.43 8.43 99 1013.3
20260510024312 20 28 0.0 0.0 0.00 8.43 8.43 99 1013.1
20260510023808 20 25 0.0 0.0 0.00 8.43 8.43 99 1013.0
20260510023304 20 22 0.0 0.0 0.00 8.43 8.43 99 1013.0
20260510022801 20 26 0.0 0.0 0.00 8.43 8.43 99 1013.4
20260510022301 20 24 0.0 0.0 0.00 8.43 8.43 99 1013.2
20260510021800 20 17 0.0 0.0 0.00 8.43 8.43 99 1013.2
20260510021258 20 22 0.0 0.0 0.00 8.43 8.43 99 1013.3
20260510020754 20 25 0.0 0.0 0.00 8.43 8.43 99 1013.5
20260510020254 20 15 0.0 0.0 0.00 8.43 8.43 99 1013.2
20260510015750 20 13 0.0 0.0 0.00 8.43 8.43 99 1013.3
20260510015247 20 309 3.2 4.8 0.00 8.43 8.43 99 1012.6
20260510014741 20 331 3.2 3.2 0.00 8.43 8.43 99 1012.6
20260510014239 20 337 0.0 0.0 0.00 8.43 8.43 99 1012.4
20260510013735 20 50 0.0 0.0 0.00 8.43 8.43 99 1012.1
20260510013230 20 37 1.6 1.6 0.00 8.43 8.43 99 1012.2
20260510012725 20 30 0.0 0.0 0.00 8.43 8.43 99 1012.1
20260510012221 20 79 0.0 1.6 0.18 8.43 8.43 99 1012.2
20260510011720 20 38 0.0 0.0 0.18 8.43 8.43 99 1012.2
20260510011216 20 57 0.0 1.6 0.00 8.41 8.41 99 1012.2
20260510010713 20 72 1.6 1.6 0.30 8.41 8.41 99 1012.4
20260510010210 20 87 0.0 0.0 0.48 8.41 8.41 99 1012.2
20260510005706 20 20 0.0 0.0 0.18 8.36 8.36 99 1012.6
20260510005203 20 14 0.0 0.0 0.00 8.33 8.33 99 1012.7
20260510004702 20 2 0.0 0.0 0.13 8.33 8.33 99 1012.9
20260510004159 20 341 0.0 0.0 0.13 8.33 8.33 99 1012.6
20260510003656 20 303 1.6 1.6 0.00 8.31 8.31 99 1012.5
20260510003151 20 10 0.0 0.0 0.00 8.31 8.31 99 1012.2
20260510002646 20 58 0.0 0.0 0.00 8.31 8.31 99 1012.2
20260510002143 20 43 0.0 0.0 0.00 8.31 8.31 99 1012.1
20260510001640 20 24 0.0 0.0 0.00 8.31 8.31 99 1011.8
20260510001139 20 42 0.0 1.6 0.00 8.31 8.31 99 1011.9
20260510000639 20 39 0.0 0.0 0.00 8.31 8.31 99 1011.9
20260510000137 20 22 0.0 0.0 0.00 8.31 8.31 99 1012.5
20260509235632 20 26 0.0 0.0 0.00 8.31 8.31 99 1012.2
20260509235129 20 7 0.0 0.0 0.00 8.31 8.31 99 1012.7
20260509234625 20 15 0.0 0.0 0.00 8.31 8.31 99 1012.2
20260509234123 20 36 0.0 0.0 0.00 8.31 8.31 99 1012.2
20260509233621 20 32 0.0 0.0 0.00 8.31 8.31 99 1012.4
20260509233118 20 25 0.0 0.0 0.00 8.31 8.31 99 1012.6
20260509232614 20 24 0.0 0.0 0.00 8.31 8.31 99 1012.8
20260509232111 20 24 0.0 0.0 0.00 8.31 8.31 99 1012.7
20260509231608 20 24 0.0 0.0 0.18 8.31 8.31 99 1012.5
20260509231105 20 25 0.0 0.0 0.18 8.31 8.31 99 1012.7
20260509230602 20 23 0.0 0.0 0.00 8.28 8.28 99 1012.9
20260509230059 20 24 0.0 0.0 0.00 8.28 8.28 99 1012.6
20260509225554 20 4 0.0 0.0 0.00 8.28 8.28 99 1012.9
20260509225050 20 359 0.0 0.0 0.13 8.28 8.28 99 1012.3
20260509224546 20 17 0.0 0.0 0.13 8.28 8.28 99 1011.7
20260509224043 20 3 0.0 0.0 0.00 8.26 8.26 99 1011.6
20260509223540 20 0 0.0 0.0 0.00 8.26 8.26 99 1011.8
20260509223038 20 24 0.0 0.0 0.00 8.26 8.26 99 1011.4
20260509222533 19 24 0.0 0.0 0.18 8.26 8.26 99 1011.2
20260509222035 19 26 0.0 0.0 0.18 8.26 8.26 99 1011.3
20260509221525 19 9 0.0 0.0 0.13 8.23 8.23 99 1011.8
20260509221021 19 298 0.0 1.6 0.30 8.23 8.23 99 1012.2
20260509220518 19 274 0.0 0.0 0.18 8.20 8.20 99 1012.0
20260509220014 19 18 0.0 0.0 0.00 8.18 8.18 99 1011.9
20260509215509 20 300 0.0 0.0 0.13 8.18 8.18 99 1012.1
20260509215007 20 269 1.6 3.2 0.13 8.18 8.18 99 1012.1
20260509214504 20 339 0.0 0.0 0.00 8.15 8.15 99 1012.0
20260509214001 20 8 0.0 0.0 0.00 8.15 8.15 99 1011.7
20260509213457 20 339 0.0 0.0 0.00 8.15 8.15 99 1012.0
20260509212954 20 356 0.0 0.0 0.00 8.15 8.15 99 1011.9
20260509212451 20 336 0.0 1.6 0.00 8.15 8.15 99 1011.9
20260509211948 20 334 0.0 0.0 0.00 8.15 8.15 99 1011.9
20260509211443 20 358 0.0 0.0 0.00 8.15 8.15 99 1011.3
20260509210940 20 341 1.6 1.6 0.00 8.15 8.15 99 1011.0
20260509210437 19 5 0.0 0.0 0.00 8.15 8.15 99 1010.5
20260509205932 20 66 1.6 3.2 0.00 8.15 8.15 99 1010.5
20260509205427 20 41 0.0 0.0 0.00 8.15 8.15 99 1010.5
20260509204923 20 52 0.0 0.0 0.00 8.15 8.15 99 1011.0
20260509204420 19 8 0.0 0.0 0.00 8.15 8.15 99 1011.2
20260509203917 19 1 0.0 0.0 0.00 8.15 8.15 99 1011.2
20260509203412 19 50 0.0 1.6 0.00 8.15 8.15 99 1010.8
20260509202910 19 40 0.0 0.0 0.18 8.15 8.15 99 1011.4
20260509202406 19 27 0.0 0.0 0.18 8.15 8.15 99 1011.6
20260509201901 19 42 0.0 0.0 0.30 8.13 8.13 99 1011.7
20260509201356 20 0 0.0 0.0 0.48 8.13 8.13 99 1012.3
20260509200854 20 50 0.0 0.0 0.66 8.10 8.10 99 1012.6
20260509200348 19 5 0.0 0.0 0.89 8.05 8.05 99 1012.8
20260509195846 19 295 3.2 3.2 0.79 7.98 7.98 99 1013.2
20260509195345 19 318 0.0 0.0 0.43 7.90 7.90 99 1013.1
20260509194845 19 342 0.0 0.0 0.48 7.85 7.85 99 1012.8
20260509194342 19 353 0.0 0.0 0.66 7.82 7.82 99 1012.6
20260509193838 19 23 0.0 0.0 0.61 7.77 7.77 99 1012.5
20260509193338 19 58 0.0 1.6 0.61 7.72 7.72 99 1012.4
20260509192834 19 25 0.0 0.0 0.71 7.67 7.67 99 1012.4
20260509192330 19 21 0.0 0.0 0.89 7.62 7.62 99 1012.5
20260509191826 19 41 0.0 1.6 0.79 7.54 7.54 99 1012.9
20260509191322 19 262 3.2 3.2 0.79 7.47 7.47 99 1013.0
20260509190818 18 34 0.0 0.0 0.61 7.42 7.42 99 1012.8
20260509190315 18 347 0.0 0.0 0.30 7.34 7.34 99 1013.1
20260509185812 18 17 0.0 0.0 0.48 7.32 7.32 99 1012.6
20260509185308 18 33 0.0 0.0 0.43 7.29 7.29 99 1012.4
20260509184806 18 28 0.0 0.0 0.43 7.24 7.24 99 1012.6
20260509184303 18 49 0.0 0.0 0.48 7.21 7.21 99 1012.8
20260509183800 18 12 0.0 0.0 0.36 7.16 7.16 99 1013.1
20260509183255 18 353 0.0 0.0 0.30 7.14 7.14 99 1013.2
20260509182750 18 354 0.0 0.0 0.43 7.11 7.11 99 1013.1
20260509182248 18 28 0.0 0.0 0.61 7.09 7.09 99 1013.0
20260509181745 18 18 0.0 0.0 0.48 7.04 7.04 99 1012.5
20260509181243 18 24 0.0 0.0 0.30 6.99 6.99 99 1012.5
20260509180740 18 37 0.0 0.0 0.30 6.96 6.96 99 1012.4
20260509180236 18 36 0.0 0.0 0.30 6.93 6.93 99 1012.2
20260509175732 18 94 1.6 3.2 0.30 6.91 6.91 99 1012.6
20260509175229 18 31 0.0 1.6 0.30 6.88 6.88 99 1012.7
20260509174725 18 29 0.0 0.0 0.48 6.86 6.86 99 1012.8
20260509174220 18 32 0.0 0.0 0.18 6.81 6.81 99 1012.6
20260509173717 18 40 0.0 1.6 0.13 6.78 6.78 99 1012.7
20260509173213 18 36 0.0 0.0 0.30 6.78 6.78 99 1012.7
20260509172709 18 60 0.0 0.0 0.18 6.76 6.76 99 1012.8
20260509172205 18 33 0.0 0.0 0.13 6.73 6.73 99 1012.8
20260509171701 18 22 0.0 0.0 0.13 6.73 6.73 99 1013.0
20260509171157 18 18 0.0 1.6 0.18 6.71 6.71 99 1013.2
20260509170654 18 25 0.0 0.0 0.79 6.71 6.71 99 1013.2
20260509170150 18 105 1.6 3.2 2.11 6.68 6.68 99 1012.7
20260509165648 18 57 1.6 1.6 3.17 6.58 6.58 99 1012.3
20260509165144 18 48 0.0 0.0 2.29 6.32 6.32 99 1013.3